Hourly Weather Bolshie Stayki

Today, 1 August, Sunday

Time Temperature Precipitation Wind Pressure Humidity
00:00 +17°C° 0 mm 2 mps 740 mmHg 69%
01:00 +17°C° 0 mm 2 mps 739 mmHg 71%
02:00 +17°C° 0 mm 2 mps 739 mmHg 74%
03:00 +17°C° 0.2 mm 2 mps 739 mmHg 81%
04:00 +17°C° 0.2 mm 2 mps 739 mmHg 87%
05:00 +17°C° 0.2 mm 2 mps 738 mmHg 94%
06:00 +18°C° 0.4 mm 3 mps 738 mmHg 92%
07:00 +19°C° 0.4 mm 3 mps 739 mmHg 90%
08:00 +20°C° 0 mm 3 mps 739 mmHg 88%
09:00 +22°C° 0.3 mm 3 mps 739 mmHg 75%
10:00 +25°C° 0.3 mm 4 mps 739 mmHg 63%
11:00 +27°C° 0.3 mm 4 mps 740 mmHg 50%
12:00 +28°C° 0 mm 4 mps 740 mmHg 44%
13:00 +28°C° 0 mm 5 mps 740 mmHg 38%
14:00 +29°C° 0 mm 5 mps 740 mmHg 32%
15:00 +28°C° 0 mm 5 mps 740 mmHg 33%
16:00 +28°C° 0 mm 5 mps 740 mmHg 34%
17:00 +28°C° 0 mm 5 mps 740 mmHg 36%
18:00 +25°C° 0 mm 4 mps 740 mmHg 43%
19:00 +23°C° 0 mm 2 mps 740 mmHg 51%
20:00 +21°C° 0 mm 1 mps 740 mmHg 58%
21:00 +20°C° 0 mm 1 mps 740 mmHg 59%
22:00 +20°C° 0 mm 1 mps 740 mmHg 60%
23:00 +19°C° 0 mm 1 mps 740 mmHg 62%

Tomorrow, 2 August, Monday

Time Temperature Precipitation Wind Pressure Humidity
00:00 +19°C° 0 mm 1 mps 739 mmHg 62%
01:00 +18°C° 0 mm 2 mps 739 mmHg 62%
02:00 +18°C° 0 mm 2 mps 739 mmHg 63%
03:00 +18°C° 0.2 mm 2 mps 738 mmHg 70%
04:00 +18°C° 0.2 mm 3 mps 738 mmHg 76%
05:00 +17°C° 0.2 mm 3 mps 737 mmHg 83%
06:00 +18°C° 0.8 mm 3 mps 737 mmHg 87%
07:00 +19°C° 0.8 mm 3 mps 736 mmHg 91%
08:00 +19°C° 0.8 mm 3 mps 735 mmHg 95%
09:00 +21°C° 0.8 mm 4 mps 735 mmHg 90%
10:00 +23°C° 0.8 mm 6 mps 734 mmHg 85%
11:00 +26°C° 0.8 mm 7 mps 734 mmHg 80%
12:00 +24°C° 1.4 mm 6 mps 734 mmHg 81%
13:00 +24°C° 1.4 mm 6 mps 734 mmHg 81%
14:00 +23°C° 1.4 mm 6 mps 733 mmHg 81%
15:00 +22°C° 0.3 mm 6 mps 734 mmHg 82%
16:00 +20°C° 0.3 mm 6 mps 734 mmHg 82%
17:00 +19°C° 0.3 mm 6 mps 735 mmHg 82%
18:00 +17°C° 0 mm 5 mps 735 mmHg 85%
19:00 +16°C° 0 mm 5 mps 736 mmHg 87%
20:00 +15°C° 0 mm 4 mps 737 mmHg 89%
21:00 +15°C° 0 mm 4 mps 737 mmHg 90%
22:00 +15°C° 0 mm 4 mps 737 mmHg 90%
23:00 +16°C° 0 mm 3 mps 738 mmHg 90%

Day after tomorrow, 3 August, Tuesday

Time Temperature Precipitation Wind Pressure Humidity
00:00 +15°C° 0.1 mm 4 mps 738 mmHg 91%
01:00 +15°C° 0.1 mm 4 mps 738 mmHg 92%
02:00 +14°C° 0.1 mm 4 mps 738 mmHg 93%
03:00 +14°C° 0 mm 4 mps 739 mmHg 93%
04:00 +14°C° 0 mm 4 mps 739 mmHg 93%
05:00 +13°C° 0 mm 3 mps 739 mmHg 94%
06:00 +14°C° 0 mm 4 mps 740 mmHg 87%
07:00 +15°C° 0 mm 4 mps 740 mmHg 79%
08:00 +17°C° 0 mm 4 mps 740 mmHg 72%
09:00 +19°C° 0.1 mm 5 mps 741 mmHg 65%
10:00 +20°C° 0.1 mm 5 mps 741 mmHg 57%
11:00 +22°C° 0.1 mm 5 mps 741 mmHg 49%
12:00 +22°C° 0.1 mm 5 mps 741 mmHg 49%
13:00 +22°C° 0.1 mm 5 mps 741 mmHg 48%
14:00 +22°C° 0.1 mm 5 mps 741 mmHg 48%
15:00 +22°C° 0 mm 5 mps 741 mmHg 49%
16:00 +22°C° 0 mm 4 mps 741 mmHg 50%
17:00 +22°C° 0 mm 4 mps 741 mmHg 52%
18:00 +20°C° 0.2 mm 3 mps 741 mmHg 64%
19:00 +18°C° 0.2 mm 3 mps 742 mmHg 76%
20:00 +16°C° 0.2 mm 2 mps 742 mmHg 88%
21:00 +15°C° 0.1 mm 2 mps 742 mmHg 90%
22:00 +15°C° 0.1 mm 2 mps 743 mmHg 93%
23:00 +14°C° 0.1 mm 2 mps 743 mmHg 96%

4 August, Wednesday

Time Temperature Precipitation Wind Pressure Humidity
00:00 +14°C° 0 mm 2 mps 743 mmHg 96%
01:00 +13°C° 0 mm 2 mps 743 mmHg 97%
02:00 +13°C° 0 mm 2 mps 744 mmHg 97%
03:00 +13°C° 0 mm 2 mps 744 mmHg 97%
04:00 +12°C° 0 mm 2 mps 744 mmHg 97%
05:00 +12°C° 0 mm 2 mps 744 mmHg 96%
06:00 +14°C° 0 mm 2 mps 745 mmHg 88%
07:00 +16°C° 0 mm 2 mps 745 mmHg 81%
08:00 +17°C° 0 mm 2 mps 746 mmHg 73%
09:00 +19°C° 0 mm 2 mps 746 mmHg 63%
10:00 +20°C° 0 mm 2 mps 746 mmHg 53%
11:00 +23°C° 0 mm 2 mps 746 mmHg 43%
12:00 +24°C° 0 mm 2 mps 746 mmHg 40%
13:00 +24°C° 0 mm 2 mps 746 mmHg 36%
14:00 +25°C° 0 mm 2 mps 746 mmHg 33%
15:00 +25°C° 0 mm 2 mps 746 mmHg 35%
16:00 +24°C° 0 mm 2 mps 746 mmHg 37%
17:00 +24°C° 0 mm 1 mps 746 mmHg 39%
18:00 +22°C° 0 mm 1 mps 746 mmHg 43%
19:00 +21°C° 0 mm 1 mps 746 mmHg 48%
20:00 +19°C° 0 mm 1 mps 746 mmHg 53%
21:00 +18°C° 0 mm 1 mps 746 mmHg 55%
22:00 +18°C° 0 mm 1 mps 746 mmHg 57%
23:00 +16°C° 0 mm 2 mps 746 mmHg 59%

5 August, Thursday

Time Temperature Precipitation Wind Pressure Humidity
00:00 +16°C° 0 mm 2 mps 746 mmHg 59%
01:00 +16°C° 0 mm 2 mps 746 mmHg 59%
02:00 +16°C° 0 mm 2 mps 746 mmHg 59%
03:00 +16°C° 0 mm 2 mps 745 mmHg 60%
04:00 +16°C° 0 mm 2 mps 745 mmHg 61%
05:00 +17°C° 0 mm 2 mps 745 mmHg 61%
06:00 +16°C° 0.1 mm 2 mps 745 mmHg 70%
07:00 +16°C° 0.1 mm 2 mps 745 mmHg 78%
08:00 +16°C° 0.1 mm 2 mps 746 mmHg 86%
09:00 +16°C° 0.1 mm 3 mps 746 mmHg 85%
10:00 +17°C° 0.1 mm 3 mps 746 mmHg 83%
11:00 +17°C° 0.1 mm 3 mps 746 mmHg 82%
12:00 +17°C° 0 mm 3 mps 746 mmHg 81%
13:00 +17°C° 0 mm 3 mps 745 mmHg 80%
14:00 +17°C° 0 mm 4 mps 745 mmHg 79%
15:00 +17°C° 0 mm 3 mps 745 mmHg 81%
16:00 +17°C° 0 mm 3 mps 745 mmHg 83%
17:00 +17°C° 0 mm 3 mps 745 mmHg 86%
18:00 +16°C° 0 mm 3 mps 744 mmHg 87%
19:00 +16°C° 0 mm 2 mps 744 mmHg 89%
20:00 +16°C° 0 mm 2 mps 744 mmHg 90%
21:00 +16°C° 0 mm 2 mps 744 mmHg 92%
22:00 +15°C° 0 mm 2 mps 744 mmHg 94%
23:00 +15°C° 0 mm 2 mps 743 mmHg 96%

6 August, Friday

Time Temperature Precipitation Wind Pressure Humidity
00:00 +15°C° 0 mm 2 mps 743 mmHg 96%
01:00 +15°C° 0 mm 2 mps 743 mmHg 97%
02:00 +15°C° 0 mm 2 mps 743 mmHg 97%
03:00 +15°C° 0.3 mm 2 mps 743 mmHg 97%
04:00 +14°C° 0.3 mm 3 mps 742 mmHg 98%
05:00 +14°C° 0.3 mm 3 mps 742 mmHg 98%
06:00 +16°C° 0.3 mm 3 mps 742 mmHg 98%
07:00 +16°C° 0.3 mm 3 mps 742 mmHg 97%
08:00 +16°C° 0.3 mm 3 mps 741 mmHg 97%
09:00 +16°C° 2.1 mm 3 mps 741 mmHg 97%
10:00 +15°C° 2.1 mm 4 mps 741 mmHg 97%
11:00 +15°C° 2.1 mm 4 mps 741 mmHg 97%
12:00 +16°C° 1.2 mm 3 mps 741 mmHg 97%
13:00 +16°C° 1.2 mm 3 mps 741 mmHg 97%
14:00 +16°C° 1.2 mm 3 mps 741 mmHg 97%
15:00 +16°C° 0.4 mm 3 mps 741 mmHg 97%
16:00 +16°C° 0.4 mm 3 mps 740 mmHg 97%
17:00 +16°C° 0.4 mm 3 mps 740 mmHg 97%
18:00 +16°C° 0.2 mm 3 mps 740 mmHg 97%
19:00 +16°C° 0.2 mm 3 mps 740 mmHg 98%
20:00 +16°C° 0.2 mm 3 mps 739 mmHg 98%
21:00 +16°C° 1 mm 3 mps 739 mmHg 98%
22:00 +16°C° 1 mm 3 mps 739 mmHg 98%
23:00 +17°C° 1 mm 4 mps 739 mmHg 98%
Show more

We Need Your Consent

Meteoprog and our Service Providers may store and access personal data such as cookies, device identifiers or other similar technologies on your device and process such data to personalise content and ads, as well as provide social media features and to analyse the traffic.

  • Store and/or access information on your device

    Cookies, device identifiers or other information can be stored or accessed on your device for the purposes indicated above.

  • Personalised ads and content, ad and content measurement, audience insights, and products development

    Ads and content can be personalised based on a profile. More data can be added to better personalise ads and content. Ad and content performance can be measured. Insights about the audience who saw the ads and content can be derived. Such data can be used to develop or improve user’s experience, systems and software.

By clicking ‘I Agree’ you will allow the use of indicated cookies, device identifiers, web beacons or other similar technologies. Your settings can be changed in the browser on your device.

For certain purposes, legitimate interests may be relied on, rather than consent. You can read more about this in our Privacy and Cookie Policy.